Time,TemperatureF,DewpointF,PressureIn,WindDirection,WindDirectionDegrees,WindSpeedMPH,WindSpeedGustMPH,Humidity,HourlyPrecipIn,Conditions,Clouds,dailyrainin,SoftwareType,DateUTC
2013-09-07 00:01:00,56.4,45.6,30.20,SSW,204,0.0,0.0,67,0.00,,SKC,0.00,VWS V13.01,2013-09-07 04:01:00,
2013-09-07 00:02:00,56.4,45.6,30.20,SSW,204,0.0,0.0,67,0.00,,SKC,0.00,VWS V13.01,2013-09-07 04:02:00,
2013-09-07 00:07:00,56.4,45.6,30.20,SSW,204,0.0,0.0,67,0.00,,SKC,0.00,VWS V13.01,2013-09-07 04:07:00,
2013-09-07 00:12:00,56.3,45.9,30.20,SSW,204,0.0,0.0,68,0.00,,SKC,0.00,VWS V13.01,2013-09-07 04:12:00,
2013-09-07 00:17:00,56.3,45.9,30.20,SSW,204,0.0,0.0,68,0.00,,SKC,0.00,VWS V13.01,2013-09-07 04:17:00,
2013-09-07 00:22:00,56.3,46.3,30.20,SSW,204,0.0,0.0,69,0.00,,SKC,0.00,VWS V13.01,2013-09-07 04:22:00,
2013-09-07 00:27:00,56.1,46.1,30.20,SSW,204,0.0,0.0,69,0.00,,SKC,0.00,VWS V13.01,2013-09-07 04:27:00,
2013-09-07 00:32:00,56.1,46.1,30.19,SSW,204,0.0,0.0,69,0.00,,SKC,0.00,VWS V13.01,2013-09-07 04:32:00,
2013-09-07 00:37:00,55.9,45.9,30.20,SSW,204,0.0,0.0,69,0.00,,SKC,0.00,VWS V13.01,2013-09-07 04:37:00,
2013-09-07 00:42:00,55.7,45.7,30.20,SSW,204,0.0,0.0,69,0.00,,SKC,0.00,VWS V13.01,2013-09-07 04:42:00,
2013-09-07 00:47:00,55.5,45.5,30.19,SSW,204,0.0,0.0,69,0.00,,SKC,0.00,VWS V13.01,2013-09-07 04:47:00,
2013-09-07 00:52:00,55.4,45.8,30.19,South,181,0.0,0.0,70,0.00,,SKC,0.00,VWS V13.01,2013-09-07 04:52:00,
2013-09-07 00:57:00,55.2,45.6,30.19,ESE,114,0.0,0.0,70,0.00,,SKC,0.00,VWS V13.01,2013-09-07 04:57:00,
2013-09-07 01:02:00,55.4,45.8,30.19,SSE,158,0.0,0.0,70,0.00,,SKC,0.00,VWS V13.01,2013-09-07 05:02:00,
2013-09-07 01:07:00,55.5,45.9,30.19,SSE,158,0.0,0.0,70,0.00,,SKC,0.00,VWS V13.01,2013-09-07 05:07:00,
2013-09-07 01:12:00,55.5,45.9,30.18,SSE,158,1.1,1.1,70,0.00,,SKC,0.00,VWS V13.01,2013-09-07 05:12:00,
2013-09-07 01:17:00,55.7,46.1,30.19,South,181,0.0,0.0,70,0.00,,SKC,0.00,VWS V13.01,2013-09-07 05:17:00,
2013-09-07 01:22:00,55.7,46.1,30.19,SSE,158,0.0,0.0,70,0.00,,SKC,0.00,VWS V13.01,2013-09-07 05:22:00,
2013-09-07 01:27:00,55.7,46.1,30.19,SW,226,0.0,0.0,70,0.00,,SKC,0.00,VWS V13.01,2013-09-07 05:27:00,
2013-09-07 01:32:00,55.7,46.1,30.18,South,181,0.0,0.0,70,0.00,,SKC,0.00,VWS V13.01,2013-09-07 05:32:00,
2013-09-07 01:37:00,55.7,46.1,30.19,South,181,0.0,0.0,70,0.00,,SKC,0.00,VWS V13.01,2013-09-07 05:37:00,
2013-09-07 01:42:00,55.7,46.1,30.19,ESE,114,0.0,0.0,70,0.00,,SKC,0.00,VWS V13.01,2013-09-07 05:42:00,
2013-09-07 01:47:00,55.5,45.9,30.19,NNE,24,0.0,0.0,70,0.00,,SKC,0.00,VWS V13.01,2013-09-07 05:47:00,
2013-09-07 01:52:00,55.5,45.9,30.19,NNE,24,0.0,0.0,70,0.00,,SKC,0.00,VWS V13.01,2013-09-07 05:52:00,
2013-09-07 01:57:00,55.2,46.0,30.19,NNE,24,0.0,0.0,71,0.00,,SKC,0.00,VWS V13.01,2013-09-07 05:57:00,
2013-09-07 02:02:00,55.2,46.0,30.19,NNE,24,0.0,0.0,71,0.00,,SKC,0.00,VWS V13.01,2013-09-07 06:02:00,
2013-09-07 02:07:00,54.6,45.8,30.19,SE,136,0.0,0.0,72,0.00,,SKC,0.00,VWS V13.01,2013-09-07 06:07:00,
2013-09-07 02:12:00,54.3,45.5,30.19,SE,136,0.0,0.0,72,0.00,,SKC,0.00,VWS V13.01,2013-09-07 06:12:00,
2013-09-07 02:17:00,54.3,45.5,30.19,SE,136,0.0,0.0,72,0.00,,SKC,0.00,VWS V13.01,2013-09-07 06:17:00,
2013-09-07 02:22:00,54.3,45.5,30.19,ESE,114,0.0,0.0,72,0.00,,SKC,0.00,VWS V13.01,2013-09-07 06:22:00,
2013-09-07 02:27:00,54.1,45.3,30.19,NE,46,0.0,0.0,72,0.00,,SKC,0.00,VWS V13.01,2013-09-07 06:27:00,
2013-09-07 02:32:00,54.1,45.3,30.19,NE,46,0.0,0.0,72,0.00,,SKC,0.00,VWS V13.01,2013-09-07 06:32:00,
2013-09-07 02:37:00,54.1,45.7,30.19,NE,46,0.0,0.0,73,0.00,,SKC,0.00,VWS V13.01,2013-09-07 06:37:00,
2013-09-07 02:42:00,54.1,45.7,30.19,NNW,338,0.0,0.0,73,0.00,,SKC,0.00,VWS V13.01,2013-09-07 06:42:00,
2013-09-07 02:47:00,54.1,45.7,30.19,NNW,338,0.0,0.0,73,0.00,,SKC,0.00,VWS V13.01,2013-09-07 06:47:00,
2013-09-07 02:52:00,54.1,45.7,30.19,SW,226,0.0,0.0,73,0.00,,SKC,0.00,VWS V13.01,2013-09-07 06:52:00,
2013-09-07 02:57:00,54.1,45.7,30.19,SSE,158,0.0,0.0,73,0.00,,SKC,0.00,VWS V13.01,2013-09-07 06:57:00,
2013-09-07 03:02:00,54.3,45.8,30.19,SE,136,0.0,0.0,73,0.00,,SKC,0.00,VWS V13.01,2013-09-07 07:02:00,
2013-09-07 03:07:00,54.3,45.8,30.18,North,1,0.0,0.0,73,0.00,,SKC,0.00,VWS V13.01,2013-09-07 07:07:00,
2013-09-07 03:12:00,54.3,45.8,30.18,South,181,0.0,0.0,73,0.00,,SKC,0.00,VWS V13.01,2013-09-07 07:12:00,
2013-09-07 03:17:00,54.5,46.0,30.18,South,181,0.0,0.0,73,0.00,,SKC,0.00,VWS V13.01,2013-09-07 07:17:00,
2013-09-07 03:22:00,54.5,46.0,30.18,South,181,0.0,0.0,73,0.00,,SKC,0.00,VWS V13.01,2013-09-07 07:22:00,
2013-09-07 03:27:00,54.5,46.0,30.18,South,181,0.0,0.0,73,0.00,,SKC,0.00,VWS V13.01,2013-09-07 07:27:00,
2013-09-07 03:32:00,54.5,46.0,30.18,WSW,248,0.0,0.0,73,0.00,,SKC,0.00,VWS V13.01,2013-09-07 07:32:00,
2013-09-07 03:37:00,54.5,46.0,30.18,SW,226,0.0,0.0,73,0.00,,SKC,0.00,VWS V13.01,2013-09-07 07:37:00,
2013-09-07 03:42:00,54.5,46.0,30.18,SW,226,0.0,0.0,73,0.00,,SKC,0.00,VWS V13.01,2013-09-07 07:42:00,
2013-09-07 03:47:00,54.6,46.1,30.18,SW,226,0.0,0.0,73,0.00,,SKC,0.00,VWS V13.01,2013-09-07 07:47:00,
2013-09-07 03:52:00,54.6,46.1,30.18,SW,226,0.0,0.0,73,0.00,,SKC,0.00,VWS V13.01,2013-09-07 07:52:00,
2013-09-07 03:57:00,54.6,46.1,30.18,SW,226,0.0,0.0,73,0.00,,SKC,0.00,VWS V13.01,2013-09-07 07:57:00,
2013-09-07 04:02:00,54.5,46.0,30.18,SW,226,0.0,0.0,73,0.00,,SKC,0.00,VWS V13.01,2013-09-07 08:02:00,
2013-09-07 04:07:00,54.5,46.0,30.18,SW,226,0.0,0.0,73,0.00,,SKC,0.00,VWS V13.01,2013-09-07 08:07:00,
2013-09-07 04:12:00,54.3,45.8,30.19,SW,226,0.0,0.0,73,0.00,,SKC,0.00,VWS V13.01,2013-09-07 08:12:00,
2013-09-07 04:17:00,54.3,45.8,30.19,SW,226,0.0,0.0,73,0.00,,SKC,0.00,VWS V13.01,2013-09-07 08:17:00,
2013-09-07 04:22:00,54.3,45.8,30.19,SW,226,0.0,0.0,73,0.00,,SKC,0.00,VWS V13.01,2013-09-07 08:22:00,
2013-09-07 04:27:00,54.3,45.8,30.18,SW,226,0.0,0.0,73,0.00,,SKC,0.00,VWS V13.01,2013-09-07 08:27:00,
2013-09-07 04:32:00,54.3,46.2,30.19,SW,226,0.0,0.0,74,0.00,,SKC,0.00,VWS V13.01,2013-09-07 08:32:00,
2013-09-07 04:37:00,54.5,46.4,30.18,SW,226,0.0,0.0,74,0.00,,SKC,0.00,VWS V13.01,2013-09-07 08:37:00,
2013-09-07 04:42:00,54.3,46.2,30.19,SW,226,0.0,0.0,74,0.00,,SKC,0.00,VWS V13.01,2013-09-07 08:42:00,
2013-09-07 04:47:00,54.3,46.2,30.18,SW,226,0.0,0.0,74,0.00,,SKC,0.00,VWS V13.01,2013-09-07 08:47:00,
2013-09-07 04:52:00,54.3,46.2,30.18,SW,226,0.0,0.0,74,0.00,,SKC,0.00,VWS V13.01,2013-09-07 08:52:00,
2013-09-07 04:57:00,54.3,46.2,30.18,SW,226,0.0,0.0,74,0.00,,SKC,0.00,VWS V13.01,2013-09-07 08:57:00,
2013-09-07 05:02:00,54.3,46.2,30.18,SW,226,0.0,0.0,74,0.00,,SKC,0.00,VWS V13.01,2013-09-07 09:02:00,
2013-09-07 05:07:00,54.8,46.7,30.18,SW,226,0.0,0.0,74,0.00,,SKC,0.00,VWS V13.01,2013-09-07 09:07:00,
2013-09-07 05:12:00,55.0,46.5,30.18,South,181,0.0,0.0,73,0.00,,SKC,0.00,VWS V13.01,2013-09-07 09:12:00,
2013-09-07 05:17:00,55.2,46.7,30.18,SSW,204,0.0,0.0,73,0.00,,SKC,0.00,VWS V13.01,2013-09-07 09:17:00,
2013-09-07 05:22:00,55.4,46.9,30.18,NNE,24,0.0,0.0,73,0.00,,SKC,0.00,VWS V13.01,2013-09-07 09:22:00,
2013-09-07 05:27:00,55.5,46.6,30.17,SSE,158,0.0,0.0,72,0.00,,SKC,0.00,VWS V13.01,2013-09-07 09:27:00,
2013-09-07 05:32:00,55.5,46.6,30.17,ENE,68,0.0,0.0,72,0.00,,SKC,0.00,VWS V13.01,2013-09-07 09:32:00,
2013-09-07 05:37:00,55.5,46.6,30.18,ESE,114,0.0,0.0,72,0.00,,SKC,0.00,VWS V13.01,2013-09-07 09:37:00,
2013-09-07 05:42:00,55.7,46.8,30.17,SSE,158,0.0,0.0,72,0.00,,SKC,0.00,VWS V13.01,2013-09-07 09:42:00,
2013-09-07 05:47:00,55.7,46.8,30.17,SSE,158,0.0,0.0,72,0.00,,SKC,0.00,VWS V13.01,2013-09-07 09:47:00,
2013-09-07 05:52:00,55.7,46.8,30.17,West,271,0.0,0.0,72,0.00,,SKC,0.00,VWS V13.01,2013-09-07 09:52:00,
2013-09-07 05:57:00,55.5,46.6,30.17,WSW,248,0.0,0.0,72,0.00,,SKC,0.00,VWS V13.01,2013-09-07 09:57:00,
2013-09-07 06:02:00,55.5,46.6,30.17,WSW,248,0.0,0.0,72,0.00,,SKC,0.00,VWS V13.01,2013-09-07 10:02:00,
2013-09-07 06:07:00,55.5,46.6,30.17,WSW,248,0.0,0.0,72,0.00,,SKC,0.00,VWS V13.01,2013-09-07 10:07:00,
2013-09-07 06:12:00,55.5,46.6,30.18,South,181,0.0,0.0,72,0.00,,SKC,0.00,VWS V13.01,2013-09-07 10:12:00,
2013-09-07 06:17:00,55.5,46.6,30.18,South,181,0.0,0.0,72,0.00,,SKC,0.00,VWS V13.01,2013-09-07 10:17:00,
2013-09-07 06:22:00,55.5,46.6,30.18,South,181,0.0,0.0,72,0.00,,SKC,0.00,VWS V13.01,2013-09-07 10:22:00,
2013-09-07 06:27:00,55.5,46.6,30.18,SW,226,0.0,0.0,72,0.00,,SKC,0.00,VWS V13.01,2013-09-07 10:27:00,
2013-09-07 06:28:00,55.5,46.6,30.18,SW,226,0.0,0.0,72,0.00,,SKC,0.00,VWS V13.01,2013-09-07 10:28:00,
2013-09-07 06:32:00,55.5,46.6,30.18,SW,226,0.0,0.0,72,0.00,,SKC,0.00,VWS V13.01,2013-09-07 10:32:00,
2013-09-07 06:37:00,55.5,46.6,30.18,SW,226,0.0,0.0,72,0.00,,SKC,0.00,VWS V13.01,2013-09-07 10:37:00,
2013-09-07 07:27:00,55.5,46.6,30.18,SW,226,0.0,0.0,72,0.00,,SKC,0.00,VWS V13.01,2013-09-07 11:27:00,
2013-09-07 07:32:00,55.5,46.6,30.18,SW,226,0.0,0.0,72,0.00,,SKC,0.00,VWS V13.01,2013-09-07 11:32:00,
2013-09-07 08:25:00,57.5,48.6,30.16,SSE,158,0.0,0.0,72,0.00,,SKC,0.00,VWS V13.01,2013-09-07 12:25:00,
2013-09-07 08:30:00,57.9,48.6,30.16,SSW,204,0.0,0.0,71,0.00,,SKC,0.00,VWS V13.01,2013-09-07 12:30:00,
2013-09-07 08:35:00,57.9,48.6,30.15,SSE,158,2.0,2.0,71,0.00,,SKC,0.00,VWS V13.01,2013-09-07 12:35:00,
2013-09-07 08:40:00,58.1,48.8,30.15,South,181,0.0,0.0,71,0.00,,SKC,0.00,VWS V13.01,2013-09-07 12:40:00,
2013-09-07 08:45:00,58.4,49.0,30.15,WSW,248,0.0,0.0,71,0.00,,SKC,0.00,VWS V13.01,2013-09-07 12:45:00,
2013-09-07 08:50:00,58.8,49.4,30.16,South,181,0.0,0.0,71,0.00,,SKC,0.00,VWS V13.01,2013-09-07 12:50:00,
2013-09-07 08:55:00,58.8,49.0,30.15,South,181,0.0,0.0,70,0.00,,SKC,0.00,VWS V13.01,2013-09-07 12:55:00,
2013-09-07 09:00:00,59.3,49.5,30.15,ESE,114,0.0,0.0,70,0.00,,SKC,0.00,VWS V13.01,2013-09-07 13:00:00,
2013-09-07 09:05:00,60.0,50.2,30.15,South,181,2.4,2.4,70,0.00,,SKC,0.00,VWS V13.01,2013-09-07 13:05:00,
2013-09-07 09:10:00,60.6,50.8,30.15,NNW,338,0.0,0.0,70,0.00,,SKC,0.00,VWS V13.01,2013-09-07 13:10:00,
2013-09-07 09:15:00,61.3,51.5,30.15,ENE,68,1.1,1.1,70,0.00,,SKC,0.00,VWS V13.01,2013-09-07 13:15:00,
2013-09-07 09:20:00,61.8,51.5,30.15,NNE,24,0.0,0.0,69,0.00,,SKC,0.00,VWS V13.01,2013-09-07 13:20:00,
2013-09-07 09:25:00,62.2,51.9,30.15,South,181,0.0,0.0,69,0.00,,SKC,0.00,VWS V13.01,2013-09-07 13:25:00,
2013-09-07 09:30:00,62.4,51.7,30.14,SSW,204,0.0,0.0,68,0.00,,SKC,0.00,VWS V13.01,2013-09-07 13:30:00,
2013-09-07 09:35:00,62.2,51.5,30.14,South,181,2.0,2.0,68,0.00,,SKC,0.00,VWS V13.01,2013-09-07 13:35:00,
2013-09-07 09:40:00,62.4,51.3,30.14,South,181,0.0,0.0,67,0.00,,SKC,0.00,VWS V13.01,2013-09-07 13:40:00,
2013-09-07 09:45:00,62.7,52.0,30.14,SSE,158,0.0,0.0,68,0.00,,SKC,0.00,VWS V13.01,2013-09-07 13:45:00,
2013-09-07 09:50:00,63.6,52.9,30.14,NE,46,0.0,0.0,68,0.00,,SKC,0.00,VWS V13.01,2013-09-07 13:50:00,
2013-09-07 09:55:00,64.2,53.0,30.14,ESE,114,0.0,0.0,67,0.00,,SKC,0.00,VWS V13.01,2013-09-07 13:55:00,
2013-09-07 10:00:00,64.7,53.5,30.14,SSE,158,0.0,0.0,67,0.00,,SKC,0.00,VWS V13.01,2013-09-07 14:00:00,
2013-09-07 10:05:00,65.4,54.2,30.14,South,181,0.0,0.0,67,0.00,,SKC,0.00,VWS V13.01,2013-09-07 14:05:00,
2013-09-07 10:10:00,65.8,54.1,30.14,West,271,0.0,0.0,66,0.00,,SKC,0.00,VWS V13.01,2013-09-07 14:10:00,
2013-09-07 10:15:00,65.8,53.7,30.13,South,181,0.0,4.0,65,0.00,,SKC,0.00,VWS V13.01,2013-09-07 14:15:00,
2013-09-07 10:20:00,65.3,52.4,30.13,SW,226,0.0,3.3,63,0.00,,SKC,0.00,VWS V13.01,2013-09-07 14:20:00,
2013-09-07 10:25:00,64.7,52.3,30.13,ENE,68,0.0,0.0,64,0.00,,SKC,0.00,VWS V13.01,2013-09-07 14:25:00,
2013-09-07 10:30:00,64.2,51.8,30.13,South,181,4.4,4.4,64,0.00,,SKC,0.00,VWS V13.01,2013-09-07 14:30:00,
2013-09-07 10:35:00,63.8,51.8,30.13,SSE,158,0.6,0.6,65,0.00,,SKC,0.00,VWS V13.01,2013-09-07 14:35:00,
2013-09-07 10:40:00,63.5,51.5,30.13,SE,136,4.6,4.6,65,0.00,,SKC,0.00,VWS V13.01,2013-09-07 14:40:00,
2013-09-07 10:45:00,63.1,51.2,30.13,SSW,204,0.0,0.0,65,0.00,,SKC,0.00,VWS V13.01,2013-09-07 14:45:00,
2013-09-07 10:50:00,62.9,51.0,30.13,South,181,0.0,0.0,65,0.00,,SKC,0.00,VWS V13.01,2013-09-07 14:50:00,
2013-09-07 10:55:00,62.7,50.8,30.13,South,181,0.0,0.0,65,0.00,,SKC,0.00,VWS V13.01,2013-09-07 14:55:00,
2013-09-07 11:00:00,62.7,51.2,30.12,South,181,2.0,2.0,66,0.00,,SKC,0.00,VWS V13.01,2013-09-07 15:00:00,
2013-09-07 11:05:00,62.7,51.2,30.12,South,181,0.0,0.0,66,0.00,,SKC,0.00,VWS V13.01,2013-09-07 15:05:00,
2013-09-07 11:10:00,62.7,51.2,30.12,South,181,0.0,0.0,66,0.00,,SKC,0.00,VWS V13.01,2013-09-07 15:10:00,
2013-09-07 11:15:00,62.9,51.4,30.12,South,181,0.0,0.0,66,0.00,,SKC,0.00,VWS V13.01,2013-09-07 15:15:00,
2013-09-07 11:20:00,63.1,51.6,30.12,South,181,0.0,0.0,66,0.00,,SKC,0.00,VWS V13.01,2013-09-07 15:20:00,
2013-09-07 11:25:00,63.3,51.8,30.12,SSE,158,0.0,0.0,66,0.00,,SKC,0.00,VWS V13.01,2013-09-07 15:25:00,
2013-09-07 11:30:00,63.3,51.8,30.11,South,181,0.0,0.0,66,0.00,,SKC,0.00,VWS V13.01,2013-09-07 15:30:00,
2013-09-07 11:35:00,63.3,51.3,30.11,South,181,0.0,2.9,65,0.00,,SKC,0.00,VWS V13.01,2013-09-07 15:35:00,
2013-09-07 11:40:00,63.3,51.3,30.11,South,181,2.4,2.4,65,0.00,,SKC,0.00,VWS V13.01,2013-09-07 15:40:00,
2013-09-07 11:45:00,62.9,51.0,30.11,South,181,2.0,2.0,65,0.00,,SKC,0.00,VWS V13.01,2013-09-07 15:45:00,
2013-09-07 11:50:00,62.9,51.4,30.11,South,181,0.8,3.5,66,0.00,,SKC,0.00,VWS V13.01,2013-09-07 15:50:00,
2013-09-07 11:55:00,62.9,51.4,30.11,South,181,0.0,0.0,66,0.00,,SKC,0.00,VWS V13.01,2013-09-07 15:55:00,
2013-09-07 12:00:00,62.7,51.2,30.11,SSE,158,0.0,0.8,66,0.00,,SKC,0.00,VWS V13.01,2013-09-07 16:00:00,
2013-09-07 12:05:00,62.7,51.2,30.11,SSE,158,0.0,0.0,66,0.00,,SKC,0.00,VWS V13.01,2013-09-07 16:05:00,
2013-09-07 12:10:00,62.7,51.6,30.10,South,181,0.0,0.0,67,0.00,,SKC,0.00,VWS V13.01,2013-09-07 16:10:00,
2013-09-07 12:15:00,62.9,51.8,30.10,South,181,0.0,1.7,67,0.00,,SKC,0.00,VWS V13.01,2013-09-07 16:15:00,
2013-09-07 12:20:00,62.7,51.6,30.10,SSE,158,0.0,0.0,67,0.00,,SKC,0.00,VWS V13.01,2013-09-07 16:20:00,
2013-09-07 12:25:00,62.7,52.0,30.09,SSE,158,0.0,0.0,68,0.00,,SKC,0.00,VWS V13.01,2013-09-07 16:25:00,
2013-09-07 12:30:00,62.9,52.2,30.09,SSE,158,0.0,0.0,68,0.00,,SKC,0.00,VWS V13.01,2013-09-07 16:30:00,
2013-09-07 12:35:00,63.1,52.4,30.09,SSE,158,0.0,0.0,68,0.00,,SKC,0.00,VWS V13.01,2013-09-07 16:35:00,
2013-09-07 12:40:00,63.1,52.4,30.10,SSE,158,1.3,1.3,68,0.00,,SKC,0.00,VWS V13.01,2013-09-07 16:40:00,
2013-09-07 12:45:00,63.6,52.9,30.09,South,181,0.0,3.5,68,0.00,,SKC,0.00,VWS V13.01,2013-09-07 16:45:00,
2013-09-07 12:50:00,64.2,53.4,30.09,South,181,1.1,1.1,68,0.00,,SKC,0.00,VWS V13.01,2013-09-07 16:50:00,
2013-09-07 12:55:00,64.5,53.7,30.09,SSE,158,0.0,0.0,68,0.00,,SKC,0.00,VWS V13.01,2013-09-07 16:55:00,
2013-09-07 13:00:00,65.4,54.2,30.08,South,181,0.0,1.5,67,0.00,,SKC,0.00,VWS V13.01,2013-09-07 17:00:00,
2013-09-07 13:05:00,66.0,54.7,30.08,SSE,158,0.0,1.3,67,0.00,,SKC,0.00,VWS V13.01,2013-09-07 17:05:00,
2013-09-07 13:10:00,66.5,54.8,30.08,SSE,158,1.1,1.1,66,0.00,,SKC,0.00,VWS V13.01,2013-09-07 17:10:00,
2013-09-07 13:15:00,67.1,55.4,30.08,South,181,0.0,2.4,66,0.00,,SKC,0.00,VWS V13.01,2013-09-07 17:15:00,
2013-09-07 13:20:00,68.0,55.8,30.07,South,181,0.0,0.0,65,0.00,,SKC,0.00,VWS V13.01,2013-09-07 17:20:00,
2013-09-07 13:25:00,68.5,55.9,30.07,South,181,3.3,3.3,64,0.00,,SKC,0.00,VWS V13.01,2013-09-07 17:25:00,
2013-09-07 13:30:00,68.9,56.2,30.07,South,181,2.2,2.2,64,0.00,,SKC,0.00,VWS V13.01,2013-09-07 17:30:00,
2013-09-07 13:35:00,69.4,56.3,30.07,SSE,158,0.0,4.9,63,0.00,,SKC,0.00,VWS V13.01,2013-09-07 17:35:00,
2013-09-07 13:40:00,69.8,56.7,30.07,SSE,158,0.0,0.0,63,0.00,,SKC,0.00,VWS V13.01,2013-09-07 17:40:00,
2013-09-07 13:45:00,70.3,57.1,30.07,SSE,158,0.4,0.4,63,0.00,,SKC,0.00,VWS V13.01,2013-09-07 17:45:00,
2013-09-07 13:50:00,70.7,57.1,30.06,South,181,0.0,3.5,62,0.00,,SKC,0.00,VWS V13.01,2013-09-07 17:50:00,
2013-09-07 13:55:00,70.7,57.1,30.07,South,181,2.2,2.2,62,0.00,,SKC,0.00,VWS V13.01,2013-09-07 17:55:00,
2013-09-07 14:00:00,70.5,56.9,30.06,South,181,1.1,1.1,62,0.00,,SKC,0.00,VWS V13.01,2013-09-07 18:00:00,
2013-09-07 14:05:00,70.5,56.9,30.06,SSW,204,0.0,0.0,62,0.00,,SKC,0.00,VWS V13.01,2013-09-07 18:05:00,
2013-09-07 14:10:00,70.3,56.7,30.06,SSE,158,0.0,0.0,62,0.00,,SKC,0.00,VWS V13.01,2013-09-07 18:10:00,
2013-09-07 14:15:00,69.9,56.3,30.06,SSE,158,0.6,1.1,62,0.00,,SKC,0.00,VWS V13.01,2013-09-07 18:15:00,
2013-09-07 14:20:00,70.1,56.5,30.05,NNW,338,0.0,0.0,62,0.00,,SKC,0.00,VWS V13.01,2013-09-07 18:20:00,
2013-09-07 14:25:00,69.9,56.3,30.05,South,181,0.0,0.0,62,0.00,,SKC,0.00,VWS V13.01,2013-09-07 18:25:00,
2013-09-07 14:30:00,69.6,56.0,30.05,East,91,0.0,2.2,62,0.00,,SKC,0.00,VWS V13.01,2013-09-07 18:30:00,
2013-09-07 14:35:00,69.6,55.6,30.05,South,181,1.3,1.3,61,0.00,,SKC,0.00,VWS V13.01,2013-09-07 18:35:00,
2013-09-07 14:40:00,69.2,55.2,30.06,SSE,158,2.0,2.0,61,0.00,,SKC,0.00,VWS V13.01,2013-09-07 18:40:00,
2013-09-07 14:45:00,69.0,55.5,30.06,South,181,0.4,0.4,62,0.00,,SKC,0.00,VWS V13.01,2013-09-07 18:45:00,
2013-09-07 14:50:00,68.9,55.4,30.05,South,181,0.0,0.0,62,0.00,,SKC,0.00,VWS V13.01,2013-09-07 18:50:00,
2013-09-07 14:55:00,68.7,55.2,30.05,SSE,158,0.0,0.0,62,0.00,,SKC,0.00,VWS V13.01,2013-09-07 18:55:00,
2013-09-07 15:00:00,68.7,55.2,30.05,South,181,2.0,2.0,62,0.00,,SKC,0.00,VWS V13.01,2013-09-07 19:00:00,
2013-09-07 15:05:00,68.7,55.6,30.05,South,181,0.0,0.0,63,0.00,,SKC,0.00,VWS V13.01,2013-09-07 19:05:00,
2013-09-07 15:10:00,68.7,55.6,30.04,South,181,0.6,0.6,63,0.00,,SKC,0.00,VWS V13.01,2013-09-07 19:10:00,
2013-09-07 15:15:00,68.5,55.4,30.05,NNE,24,0.0,0.6,63,0.00,,SKC,0.00,VWS V13.01,2013-09-07 19:15:00,
2013-09-07 15:20:00,68.3,55.7,30.04,South,181,0.0,0.0,64,0.00,,SKC,0.00,VWS V13.01,2013-09-07 19:20:00,
2013-09-07 15:25:00,68.1,55.0,30.05,South,181,0.0,0.0,63,0.00,,SKC,0.00,VWS V13.01,2013-09-07 19:25:00,
2013-09-07 15:30:00,68.3,55.2,30.05,West,271,0.0,0.0,63,0.00,,SKC,0.00,VWS V13.01,2013-09-07 19:30:00,
2013-09-07 15:35:00,68.3,55.7,30.05,West,271,0.0,0.0,64,0.00,,SKC,0.00,VWS V13.01,2013-09-07 19:35:00,
2013-09-07 15:40:00,68.5,55.9,30.05,West,271,0.0,0.0,64,0.00,,SKC,0.00,VWS V13.01,2013-09-07 19:40:00,
2013-09-07 15:45:00,68.7,56.0,30.05,SSW,204,0.0,0.0,64,0.00,,SKC,0.00,VWS V13.01,2013-09-07 19:45:00,
2013-09-07 15:50:00,68.9,56.2,30.04,South,181,0.0,0.0,64,0.00,,SKC,0.00,VWS V13.01,2013-09-07 19:50:00,
2013-09-07 15:55:00,69.0,56.3,30.05,SW,226,0.0,0.0,64,0.00,,SKC,0.00,VWS V13.01,2013-09-07 19:55:00,
2013-09-07 16:00:00,68.9,56.2,30.05,South,181,0.0,1.1,64,0.00,,SKC,0.00,VWS V13.01,2013-09-07 20:00:00,
2013-09-07 16:05:00,68.7,56.0,30.04,SSE,158,0.0,2.6,64,0.00,,SKC,0.00,VWS V13.01,2013-09-07 20:05:00,
2013-09-07 16:10:00,68.5,55.9,30.04,South,181,0.0,0.0,64,0.00,,SKC,0.00,VWS V13.01,2013-09-07 20:10:00,
2013-09-07 16:15:00,68.5,55.9,30.04,SSE,158,0.0,0.0,64,0.00,,SKC,0.00,VWS V13.01,2013-09-07 20:15:00,
2013-09-07 16:20:00,68.1,55.5,30.04,South,181,0.0,0.0,64,0.00,,SKC,0.00,VWS V13.01,2013-09-07 20:20:00,
2013-09-07 16:25:00,67.8,55.2,30.04,South,181,0.0,0.0,64,0.00,,SKC,0.00,VWS V13.01,2013-09-07 20:25:00,
2013-09-07 16:30:00,67.6,55.4,30.03,South,181,0.0,0.0,65,0.00,,SKC,0.00,VWS V13.01,2013-09-07 20:30:00,
2013-09-07 16:35:00,67.2,55.0,30.03,South,181,2.2,2.2,65,0.00,,SKC,0.00,VWS V13.01,2013-09-07 20:35:00,
2013-09-07 16:40:00,66.9,55.2,30.02,South,181,0.0,0.0,66,0.00,,SKC,0.00,VWS V13.01,2013-09-07 20:40:00,
2013-09-07 16:45:00,66.5,55.2,30.02,South,181,1.7,1.7,67,0.00,,SKC,0.00,VWS V13.01,2013-09-07 20:45:00,
2013-09-07 16:50:00,66.2,54.9,30.02,South,181,2.9,5.1,67,0.00,,SKC,0.00,VWS V13.01,2013-09-07 20:50:00,
2013-09-07 16:55:00,66.0,55.2,30.01,South,181,0.0,0.0,68,0.00,,SKC,0.00,VWS V13.01,2013-09-07 20:55:00,
2013-09-07 17:00:00,65.6,54.8,30.01,South,181,4.4,4.4,68,0.00,,SKC,0.00,VWS V13.01,2013-09-07 21:00:00,
2013-09-07 17:05:00,65.4,54.6,30.01,South,181,2.4,4.9,68,0.00,,SKC,0.00,VWS V13.01,2013-09-07 21:05:00,
2013-09-07 17:10:00,65.3,54.9,30.01,SSE,158,1.7,1.7,69,0.00,,SKC,0.00,VWS V13.01,2013-09-07 21:10:00,
2013-09-07 17:15:00,65.1,54.7,30.00,SSE,158,0.0,1.3,69,0.00,,SKC,0.00,VWS V13.01,2013-09-07 21:15:00,
2013-09-07 17:20:00,65.1,54.7,30.00,South,181,2.9,2.9,69,0.00,,SKC,0.00,VWS V13.01,2013-09-07 21:20:00,
2013-09-07 17:25:00,65.1,55.1,30.00,South,181,4.0,4.0,70,0.00,,SKC,0.00,VWS V13.01,2013-09-07 21:25:00,
2013-09-07 17:30:00,64.9,54.9,30.01,South,181,4.0,4.0,70,0.00,,SKC,0.00,VWS V13.01,2013-09-07 21:30:00,
2013-09-07 17:35:00,64.7,54.7,30.00,South,181,4.9,4.9,70,0.00,,SKC,0.00,VWS V13.01,2013-09-07 21:35:00,
2013-09-07 17:40:00,64.7,55.1,30.00,South,181,0.6,0.6,71,0.00,,SKC,0.00,VWS V13.01,2013-09-07 21:40:00,
2013-09-07 17:45:00,64.5,54.9,30.00,South,181,2.9,4.6,71,0.00,,SKC,0.00,VWS V13.01,2013-09-07 21:45:00,
2013-09-07 17:50:00,64.5,54.9,30.00,SSE,158,4.6,4.6,71,0.00,,SKC,0.00,VWS V13.01,2013-09-07 21:50:00,
2013-09-07 17:55:00,64.5,54.9,30.00,South,181,2.6,2.6,71,0.00,,SKC,0.00,VWS V13.01,2013-09-07 21:55:00,
2013-09-07 18:00:00,64.5,54.9,30.01,South,181,3.3,3.3,71,0.00,,SKC,0.00,VWS V13.01,2013-09-07 22:00:00,
2013-09-07 18:05:00,64.7,55.1,30.01,SSW,204,0.0,0.0,71,0.00,,SKC,0.00,VWS V13.01,2013-09-07 22:05:00,
2013-09-07 18:10:00,64.7,54.7,30.01,SSE,158,0.0,0.0,70,0.00,,SKC,0.00,VWS V13.01,2013-09-07 22:10:00,
2013-09-07 18:15:00,64.7,54.7,30.01,South,181,4.9,4.9,70,0.00,,SKC,0.00,VWS V13.01,2013-09-07 22:15:00,
2013-09-07 18:20:00,64.9,54.9,30.01,SSE,158,1.5,1.5,70,0.00,,SKC,0.00,VWS V13.01,2013-09-07 22:20:00,
2013-09-07 18:25:00,64.7,54.7,30.01,South,181,0.0,0.0,70,0.00,,SKC,0.00,VWS V13.01,2013-09-07 22:25:00,
2013-09-07 18:30:00,64.7,54.7,30.02,SSW,204,0.0,0.0,70,0.00,,SKC,0.00,VWS V13.01,2013-09-07 22:30:00,
2013-09-07 18:35:00,64.7,54.7,30.01,South,181,2.6,2.6,70,0.00,,SKC,0.00,VWS V13.01,2013-09-07 22:35:00,
2013-09-07 18:40:00,64.7,54.7,30.01,South,181,0.0,0.0,70,0.00,,SKC,0.00,VWS V13.01,2013-09-07 22:40:00,
2013-09-07 18:45:00,64.7,54.3,30.01,South,181,2.4,2.4,69,0.00,,SKC,0.00,VWS V13.01,2013-09-07 22:45:00,
2013-09-07 18:50:00,64.7,54.3,30.01,South,181,5.1,5.1,69,0.00,,SKC,0.00,VWS V13.01,2013-09-07 22:50:00,
2013-09-07 18:55:00,64.5,54.1,30.01,South,181,0.0,0.0,69,0.00,,SKC,0.00,VWS V13.01,2013-09-07 22:55:00,
2013-09-07 19:00:00,64.5,54.1,30.01,South,181,2.4,2.4,69,0.00,,SKC,0.00,VWS V13.01,2013-09-07 23:00:00,
2013-09-07 19:05:00,64.2,53.4,30.01,South,181,4.6,4.6,68,0.00,,SKC,0.00,VWS V13.01,2013-09-07 23:05:00,
2013-09-07 19:10:00,64.2,53.4,30.01,South,181,2.0,2.0,68,0.00,,SKC,0.00,VWS V13.01,2013-09-07 23:10:00,
2013-09-07 19:15:00,64.2,53.0,30.01,South,181,0.6,0.6,67,0.00,,SKC,0.00,VWS V13.01,2013-09-07 23:15:00,
2013-09-07 19:20:00,64.2,53.0,30.01,South,181,2.2,2.2,67,0.00,,SKC,0.00,VWS V13.01,2013-09-07 23:20:00,
2013-09-07 19:25:00,64.0,52.8,30.01,SSE,158,4.6,4.6,67,0.00,,SKC,0.00,VWS V13.01,2013-09-07 23:25:00,
2013-09-07 19:30:00,64.0,52.8,30.01,South,181,0.6,2.9,67,0.00,,SKC,0.00,VWS V13.01,2013-09-07 23:30:00,
2013-09-07 19:35:00,64.0,52.8,30.01,South,181,1.5,1.5,67,0.00,,SKC,0.00,VWS V13.01,2013-09-07 23:35:00,
2013-09-07 19:40:00,64.0,53.2,30.01,South,181,1.1,1.1,68,0.00,,SKC,0.00,VWS V13.01,2013-09-07 23:40:00,
2013-09-07 19:45:00,63.8,53.0,30.01,South,181,2.4,2.4,68,0.00,,SKC,0.00,VWS V13.01,2013-09-07 23:45:00,
2013-09-07 19:50:00,63.6,53.3,30.01,South,181,0.0,1.5,69,0.00,,SKC,0.00,VWS V13.01,2013-09-07 23:50:00,
2013-09-07 19:55:00,63.6,53.3,30.01,South,181,0.0,0.0,69,0.00,,SKC,0.00,VWS V13.01,2013-09-07 23:55:00,
2013-09-07 20:00:00,63.6,53.3,30.01,South,181,1.1,1.1,69,0.00,,SKC,0.00,VWS V13.01,2013-09-08 00:00:00,
2013-09-07 20:05:00,63.5,53.2,30.01,South,181,0.0,0.0,69,0.00,,SKC,0.00,VWS V13.01,2013-09-08 00:05:00,
2013-09-07 20:10:00,63.5,53.2,30.01,South,181,2.0,2.0,69,0.00,,SKC,0.00,VWS V13.01,2013-09-08 00:10:00,
2013-09-07 20:15:00,63.5,52.8,30.01,South,181,1.1,2.2,68,0.00,,SKC,0.00,VWS V13.01,2013-09-08 00:15:00,
2013-09-07 20:20:00,63.3,52.6,30.01,South,181,0.0,0.0,68,0.00,,SKC,0.00,VWS V13.01,2013-09-08 00:20:00,
2013-09-07 20:25:00,63.3,52.2,30.01,SE,136,0.0,0.0,67,0.00,,SKC,0.00,VWS V13.01,2013-09-08 00:25:00,
2013-09-07 20:30:00,63.3,52.2,30.01,South,181,0.0,0.0,67,0.00,,SKC,0.00,VWS V13.01,2013-09-08 00:30:00,
2013-09-07 20:35:00,63.3,51.8,30.00,SSE,158,0.0,1.1,66,0.00,,SKC,0.00,VWS V13.01,2013-09-08 00:35:00,
2013-09-07 20:40:00,63.3,51.3,30.01,SW,226,0.0,0.0,65,0.00,,SKC,0.00,VWS V13.01,2013-09-08 00:40:00,
2013-09-07 20:45:00,63.3,50.9,30.01,SSE,158,5.1,5.5,64,0.00,,SKC,0.00,VWS V13.01,2013-09-08 00:45:00,
2013-09-07 20:50:00,63.3,50.9,30.01,ESE,114,0.0,0.0,64,0.00,,SKC,0.00,VWS V13.01,2013-09-08 00:50:00,
2013-09-07 20:55:00,63.1,50.7,30.01,South,181,0.0,0.0,64,0.00,,SKC,0.00,VWS V13.01,2013-09-08 00:55:00,
2013-09-07 21:00:00,63.1,50.7,30.01,SSE,158,1.3,3.8,64,0.00,,SKC,0.00,VWS V13.01,2013-09-08 01:00:00,
2013-09-07 21:05:00,63.1,50.7,30.01,SSE,158,0.0,0.0,64,0.00,,SKC,0.00,VWS V13.01,2013-09-08 01:05:00,
2013-09-07 21:10:00,63.1,50.7,30.01,South,181,1.3,1.3,64,0.00,,SKC,0.00,VWS V13.01,2013-09-08 01:10:00,
2013-09-07 21:15:00,63.1,50.7,30.01,South,181,0.8,0.8,64,0.00,,SKC,0.00,VWS V13.01,2013-09-08 01:15:00,
2013-09-07 21:20:00,63.1,50.7,30.01,South,181,0.0,0.0,64,0.00,,SKC,0.00,VWS V13.01,2013-09-08 01:20:00,
2013-09-07 21:25:00,63.1,50.7,30.01,West,271,0.0,0.0,64,0.00,,SKC,0.00,VWS V13.01,2013-09-08 01:25:00,
2013-09-07 21:30:00,63.1,50.7,30.01,SSE,158,0.0,0.6,64,0.00,,SKC,0.00,VWS V13.01,2013-09-08 01:30:00,
2013-09-07 21:35:00,62.9,50.5,30.01,South,181,0.0,0.0,64,0.00,,SKC,0.00,VWS V13.01,2013-09-08 01:35:00,
2013-09-07 21:40:00,62.9,50.5,30.00,South,181,1.1,1.1,64,0.00,,SKC,0.00,VWS V13.01,2013-09-08 01:40:00,
2013-09-07 21:45:00,62.7,50.8,30.00,South,181,0.0,2.4,65,0.00,,SKC,0.00,VWS V13.01,2013-09-08 01:45:00,
2013-09-07 21:50:00,62.7,50.8,30.00,South,181,1.1,1.1,65,0.00,,SKC,0.00,VWS V13.01,2013-09-08 01:50:00,
2013-09-07 21:55:00,62.7,50.8,30.00,SSE,158,0.0,0.0,65,0.00,,SKC,0.00,VWS V13.01,2013-09-08 01:55:00,
2013-09-07 22:00:00,62.7,51.2,29.99,SW,226,2.9,2.9,66,0.00,,SKC,0.00,VWS V13.01,2013-09-08 02:00:00,
2013-09-07 22:05:00,62.6,51.1,29.99,South,181,1.7,1.7,66,0.00,,SKC,0.00,VWS V13.01,2013-09-08 02:05:00,
2013-09-07 22:10:00,62.6,51.1,29.99,South,181,0.0,0.0,66,0.00,,SKC,0.00,VWS V13.01,2013-09-08 02:10:00,
2013-09-07 22:15:00,62.4,50.9,29.99,SSE,158,0.0,0.0,66,0.00,,SKC,0.00,VWS V13.01,2013-09-08 02:15:00,
2013-09-07 22:20:00,62.4,51.3,29.99,South,181,1.7,1.7,67,0.00,,SKC,0.00,VWS V13.01,2013-09-08 02:20:00,
2013-09-07 22:25:00,62.4,51.3,29.99,South,181,3.3,3.3,67,0.00,,SKC,0.00,VWS V13.01,2013-09-08 02:25:00,
2013-09-07 22:30:00,62.4,51.3,29.99,SSE,158,0.0,0.0,67,0.00,,SKC,0.00,VWS V13.01,2013-09-08 02:30:00,
2013-09-07 22:35:00,62.2,51.1,29.98,South,181,0.0,0.0,67,0.00,,SKC,0.00,VWS V13.01,2013-09-08 02:35:00,
2013-09-07 22:40:00,62.2,51.5,29.99,South,181,0.0,0.0,68,0.00,,SKC,0.00,VWS V13.01,2013-09-08 02:40:00,
2013-09-07 22:45:00,62.2,51.5,29.98,SSW,204,4.0,4.0,68,0.00,,SKC,0.00,VWS V13.01,2013-09-08 02:45:00,
2013-09-07 22:50:00,62.2,51.5,29.98,South,181,2.9,2.9,68,0.00,,SKC,0.00,VWS V13.01,2013-09-08 02:50:00,
2013-09-07 22:55:00,62.2,51.1,29.98,South,181,0.0,0.0,67,0.00,,SKC,0.00,VWS V13.01,2013-09-08 02:55:00,
2013-09-07 23:00:00,62.2,51.1,29.98,SSW,204,1.1,1.1,67,0.00,,SKC,0.00,VWS V13.01,2013-09-08 03:00:00,
2013-09-07 23:05:00,62.2,51.1,29.98,South,181,0.0,0.0,67,0.00,,SKC,0.00,VWS V13.01,2013-09-08 03:05:00,
2013-09-07 23:10:00,62.2,50.7,29.99,South,181,0.0,0.0,66,0.00,,SKC,0.00,VWS V13.01,2013-09-08 03:10:00,
2013-09-07 23:15:00,62.2,50.7,29.98,SSW,204,0.0,0.0,66,0.00,,SKC,0.00,VWS V13.01,2013-09-08 03:15:00,
2013-09-07 23:20:00,62.2,50.7,29.98,South,181,3.1,3.1,66,0.00,,SKC,0.00,VWS V13.01,2013-09-08 03:20:00,
2013-09-07 23:25:00,62.2,50.7,29.98,SSE,158,0.0,0.0,66,0.00,,SKC,0.00,VWS V13.01,2013-09-08 03:25:00,
2013-09-07 23:30:00,62.2,50.7,29.98,South,181,0.0,1.7,66,0.00,,SKC,0.00,VWS V13.01,2013-09-08 03:30:00,
2013-09-07 23:35:00,62.2,50.7,29.98,South,181,0.0,0.0,66,0.00,,SKC,0.00,VWS V13.01,2013-09-08 03:35:00,
2013-09-07 23:40:00,62.4,50.9,29.98,SSE,158,0.4,0.4,66,0.00,,SKC,0.00,VWS V13.01,2013-09-08 03:40:00,
2013-09-07 23:45:00,62.2,50.7,29.98,South,181,0.0,0.0,66,0.00,,SKC,0.00,VWS V13.01,2013-09-08 03:45:00,
2013-09-07 23:50:00,62.2,50.7,29.98,SW,226,0.0,0.0,66,0.00,,SKC,0.00,VWS V13.01,2013-09-08 03:50:00,
2013-09-07 23:55:00,62.2,50.7,29.98,South,181,0.8,0.8,66,0.00,,SKC,0.00,VWS V13.01,2013-09-08 03:55:00,